| time (UTC) | temp F | wind direction | speed knots | gust knots | rain 1hr in | rain 24hr in | rain mn in | humidity % | barometer mb |
| 20260509045418 | 56 | 45 | 0.0 | 1.7 | 0.00 | 0.00 | 0.00 | 88 | 948.0 |
| 20260509044418 | 56 | 45 | 1.7 | 2.6 | 0.00 | 0.00 | 0.00 | 88 | 948.0 |
| 20260509043918 | 56 | 45 | 0.0 | 2.6 | 0.00 | 0.00 | 0.00 | 88 | 948.0 |
| 20260509043417 | 56 | 45 | 2.6 | 2.6 | 0.00 | 0.00 | 0.00 | 88 | 948.0 |
| 20260509042926 | 56 | 45 | 0.0 | 1.7 | 0.00 | 0.00 | 0.00 | 88 | 948.0 |
| 20260509041918 | 55 | 45 | 0.0 | 0.9 | 0.00 | 0.00 | 0.00 | 88 | 947.0 |
| 20260509041432 | 55 | 45 | 0.0 | 1.7 | 0.00 | 0.00 | 0.00 | 88 | 948.0 |
| 20260509035917 | 55 | 45 | 0.0 | 0.0 | 0.00 | 0.00 | 0.00 | 88 | 948.0 |
| 20260509030922 | 54 | 45 | 0.0 | 0.0 | 0.00 | 0.00 | 0.00 | 88 | 947.0 |
| 20260509025918 | 54 | 45 | 0.0 | 1.7 | 0.00 | 0.00 | 0.00 | 88 | 947.0 |
| 20260509025420 | 54 | 0 | 0.0 | 1.7 | 0.00 | 0.00 | 0.00 | 88 | 947.0 |
| 20260509024927 | 54 | 45 | 0.9 | 0.9 | 0.00 | 0.00 | 0.00 | 88 | 947.0 |
| 20260509021420 | 54 | 45 | 0.0 | 0.0 | 0.00 | 0.00 | 0.00 | 88 | 947.0 |
| 20260509020944 | 54 | 45 | 0.0 | 0.0 | 0.00 | 0.00 | 0.00 | 88 | 947.0 |
| 20260509020418 | 54 | 45 | 0.0 | 0.0 | 0.00 | 0.00 | 0.00 | 88 | 947.0 |
| 20260509015917 | 54 | 45 | 0.0 | 0.0 | 0.00 | 0.00 | 0.00 | 88 | 947.0 |
| 20260509015417 | 54 | 45 | 0.0 | 0.0 | 0.00 | 0.00 | 0.00 | 88 | 947.0 |
| 20260509014421 | 54 | 45 | 0.0 | 0.0 | 0.00 | 0.00 | 0.00 | 87 | 947.0 |
| 20260509013918 | 54 | 45 | 0.0 | 0.0 | 0.00 | 0.00 | 0.00 | 87 | 947.0 |
| 20260509013426 | 55 | 45 | 0.0 | 0.0 | 0.00 | 0.00 | 0.00 | 87 | 947.0 |
| 20260509012917 | 55 | 45 | 0.0 | 0.0 | 0.00 | 0.00 | 0.00 | 87 | 947.0 |
| 20260509012423 | 55 | 45 | 0.0 | 0.0 | 0.00 | 0.00 | 0.00 | 87 | 947.0 |
| 20260509011918 | 55 | 45 | 0.0 | 0.0 | 0.00 | 0.00 | 0.00 | 87 | 947.0 |
| 20260509011421 | 55 | 45 | 0.0 | 0.0 | 0.00 | 0.00 | 0.00 | 87 | 947.0 |
| 20260509010918 | 55 | 45 | 0.0 | 0.0 | 0.00 | 0.00 | 0.00 | 87 | 947.0 |
| 20260509010427 | 55 | 45 | 0.0 | 0.0 | 0.00 | 0.00 | 0.00 | 87 | 947.0 |
| 20260509005917 | 55 | 45 | 0.0 | 0.0 | 0.00 | 0.00 | 0.00 | 87 | 947.0 |
| 20260509005418 | 54 | 45 | 0.0 | 0.0 | 0.00 | 0.00 | 0.00 | 87 | 947.0 |
| 20260509004932 | 55 | 45 | 0.0 | 0.0 | 0.00 | 0.00 | 0.00 | 87 | 947.0 |
| 20260509003418 | 54 | 45 | 0.0 | 0.0 | 0.00 | 0.00 | 0.00 | 87 | 947.0 |
| 20260509002438 | 55 | 45 | 0.0 | 0.0 | 0.00 | 0.00 | 0.00 | 87 | 947.0 |
| 20260509001919 | 55 | 45 | 0.0 | 0.0 | 0.00 | 0.00 | 0.00 | 87 | 947.0 |
| 20260509001423 | 55 | 45 | 0.0 | 0.0 | 0.00 | 0.00 | 0.00 | 87 | 947.0 |
| 20260508235421 | 55 | 45 | 0.0 | 0.0 | 0.00 | 0.00 | 0.00 | 87 | 947.0 |
| 20260508234421 | 55 | 45 | 0.0 | 0.0 | 0.00 | 0.00 | 0.00 | 87 | 947.0 |
| 20260508233923 | 55 | 45 | 0.0 | 0.0 | 0.00 | 0.00 | 0.00 | 87 | 947.0 |
| 20260508233420 | 56 | 45 | 0.0 | 0.0 | 0.00 | 0.00 | 0.00 | 87 | 947.0 |
| 20260508232924 | 55 | 0 | 0.0 | 0.0 | 0.00 | 0.00 | 0.00 | 87 | 947.0 |
| 20260508231919 | 55 | 45 | 0.0 | 0.0 | 0.00 | 0.00 | 0.00 | 87 | 947.0 |
| 20260508230919 | 55 | 45 | 0.0 | 0.0 | 0.00 | 0.00 | 0.00 | 87 | 947.0 |
| 20260508230432 | 55 | 45 | 0.0 | 0.0 | 0.00 | 0.00 | 0.00 | 87 | 947.0 |
| 20260508225919 | 55 | 45 | 0.0 | 0.0 | 0.00 | 0.00 | 0.00 | 86 | 947.0 |
| 20260508225423 | 56 | 45 | 0.0 | 0.0 | 0.00 | 0.00 | 0.00 | 86 | 947.0 |
| 20260508224438 | 56 | 45 | 0.0 | 0.0 | 0.00 | 0.00 | 0.00 | 86 | 947.0 |
| 20260508223921 | 56 | 45 | 0.0 | 0.0 | 0.00 | 0.00 | 0.00 | 86 | 947.0 |
| 20260508223419 | 56 | 45 | 0.0 | 0.0 | 0.00 | 0.00 | 0.00 | 86 | 947.0 |
| 20260508222420 | 56 | 45 | 0.0 | 0.0 | 0.00 | 0.00 | 0.00 | 86 | 947.0 |
| 20260508220920 | 56 | 45 | 0.0 | 0.0 | 0.00 | 0.00 | 0.00 | 86 | 947.0 |
| 20260508215924 | 56 | 45 | 0.0 | 0.0 | 0.00 | 0.00 | 0.00 | 86 | 947.0 |
| 20260508215420 | 56 | 45 | 0.0 | 0.0 | 0.00 | 0.00 | 0.00 | 86 | 947.0 |
| 20260508214926 | 56 | 45 | 0.0 | 0.0 | 0.00 | 0.00 | 0.00 | 86 | 947.0 |
| 20260508213929 | 56 | 45 | 0.0 | 0.0 | 0.00 | 0.00 | 0.00 | 85 | 947.0 |
| 20260508213422 | 56 | 45 | 0.0 | 0.0 | 0.00 | 0.00 | 0.00 | 85 | 947.0 |
| 20260508212423 | 56 | 45 | 0.0 | 1.7 | 0.00 | 0.00 | 0.00 | 85 | 947.0 |
| 20260508211934 | 56 | 45 | 0.0 | 1.7 | 0.00 | 0.00 | 0.00 | 85 | 947.0 |
| 20260508211422 | 56 | 45 | 1.7 | 1.7 | 0.00 | 0.00 | 0.00 | 85 | 947.0 |
| 20260508210921 | 56 | 45 | 0.0 | 0.0 | 0.00 | 0.00 | 0.00 | 85 | 947.0 |
| 20260508210442 | 56 | 45 | 0.0 | 0.0 | 0.00 | 0.00 | 0.00 | 85 | 947.0 |
| 20260508205421 | 56 | 45 | 0.0 | 1.7 | 0.00 | 0.00 | 0.00 | 85 | 948.0 |
| 20260508204921 | 56 | 45 | 0.0 | 1.7 | 0.00 | 0.00 | 0.00 | 85 | 947.0 |
| 20260508203923 | 56 | 45 | 0.0 | 0.0 | 0.00 | 0.00 | 0.00 | 85 | 947.0 |
| 20260508203423 | 56 | 45 | 0.0 | 0.0 | 0.00 | 0.00 | 0.00 | 85 | 948.0 |
| 20260508202921 | 56 | 45 | 0.0 | 0.0 | 0.00 | 0.00 | 0.00 | 85 | 947.0 |
| 20260508202424 | 56 | 45 | 0.0 | 0.0 | 0.00 | 0.00 | 0.00 | 85 | 947.0 |
| 20260508201926 | 56 | 45 | 0.0 | 0.0 | 0.00 | 0.00 | 0.00 | 85 | 947.0 |
| 20260508201427 | 56 | 45 | 0.0 | 0.0 | 0.00 | 0.00 | 0.00 | 85 | 947.0 |
| 20260508200923 | 56 | 45 | 0.0 | 0.0 | 0.00 | 0.00 | 0.00 | 85 | 947.0 |
| 20260508200422 | 57 | 45 | 0.0 | 0.0 | 0.00 | 0.00 | 0.00 | 84 | 947.0 |
| 20260508195936 | 57 | 45 | 0.0 | 0.0 | 0.00 | 0.00 | 0.00 | 85 | 947.0 |
| 20260508195502 | 57 | 45 | 0.0 | 0.0 | 0.00 | 0.00 | 0.00 | 84 | 947.0 |
| 20260508193422 | 57 | 45 | 0.0 | 1.7 | 0.00 | 0.00 | 0.00 | 84 | 947.0 |
| 20260508191943 | 58 | 45 | 0.0 | 0.0 | 0.00 | 0.00 | 0.00 | 84 | 947.0 |
| 20260508191424 | 58 | 45 | 0.0 | 0.0 | 0.00 | 0.00 | 0.00 | 84 | 947.0 |
| 20260508190952 | 58 | 45 | 0.0 | 0.0 | 0.00 | 0.00 | 0.00 | 84 | 947.0 |
| 20260508190423 | 57 | 45 | 0.0 | 0.0 | 0.00 | 0.00 | 0.00 | 84 | 947.0 |
| 20260508185923 | 58 | 45 | 0.0 | 0.0 | 0.00 | 0.00 | 0.00 | 84 | 947.0 |
| 20260508185429 | 57 | 45 | 0.0 | 0.0 | 0.00 | 0.00 | 0.00 | 84 | 947.0 |
| 20260508184927 | 57 | 45 | 0.0 | 0.0 | 0.00 | 0.00 | 0.00 | 84 | 947.0 |
| 20260508184423 | 57 | 45 | 0.0 | 0.0 | 0.00 | 0.00 | 0.00 | 83 | 947.0 |
| 20260508182924 | 58 | 45 | 0.0 | 1.7 | 0.00 | 0.00 | 0.00 | 83 | 947.0 |
| 20260508182433 | 58 | 45 | 0.0 | 1.7 | 0.00 | 0.00 | 0.00 | 83 | 946.0 |
| 20260508181438 | 58 | 45 | 0.0 | 0.0 | 0.00 | 0.00 | 0.00 | 83 | 946.0 |
| 20260508180924 | 59 | 45 | 0.0 | 2.6 | 0.00 | 0.00 | 0.00 | 83 | 946.0 |
| 20260508180425 | 59 | 45 | 0.0 | 3.5 | 0.00 | 0.00 | 0.00 | 83 | 946.0 |
| 20260508175443 | 60 | 45 | 0.0 | 3.5 | 0.00 | 0.00 | 0.00 | 82 | 946.0 |
| 20260508174924 | 60 | 45 | 1.7 | 1.7 | 0.00 | 0.00 | 0.00 | 82 | 946.0 |
| 20260508174425 | 60 | 45 | 0.0 | 0.0 | 0.00 | 0.00 | 0.00 | 82 | 946.0 |
| 20260508173949 | 60 | 45 | 0.0 | 0.0 | 0.00 | 0.00 | 0.00 | 82 | 946.0 |
| 20260508172424 | 61 | 45 | 0.0 | 0.9 | 0.00 | 0.00 | 0.00 | 81 | 946.0 |
| 20260508171928 | 61 | 45 | 0.0 | 0.9 | 0.00 | 0.00 | 0.00 | 81 | 946.0 |
| 20260508170427 | 62 | 45 | 0.0 | 0.0 | 0.00 | 0.00 | 0.00 | 81 | 946.0 |
| 20260508165433 | 62 | 45 | 0.0 | 0.0 | 0.00 | 0.00 | 0.00 | 80 | 946.0 |
| 20260508164934 | 62 | 45 | 0.0 | 0.0 | 0.00 | 0.00 | 0.00 | 80 | 946.0 |
| 20260508163926 | 63 | 45 | 0.0 | 0.0 | 0.00 | 0.00 | 0.00 | 80 | 946.0 |
| 20260508163438 | 63 | 45 | 0.0 | 0.0 | 0.00 | 0.00 | 0.00 | 80 | 946.0 |
| 20260508161926 | 63 | 45 | 0.0 | 0.0 | 0.00 | 0.00 | 0.00 | 80 | 945.0 |
| 20260508160926 | 63 | 45 | 0.0 | 0.0 | 0.00 | 0.00 | 0.00 | 80 | 945.0 |
| 20260508160427 | 63 | 45 | 0.0 | 0.0 | 0.00 | 0.00 | 0.00 | 80 | 945.0 |
| 20260508155926 | 63 | 45 | 0.0 | 0.0 | 0.00 | 0.00 | 0.00 | 79 | 945.0 |
| 20260508155425 | 63 | 45 | 0.0 | 0.0 | 0.00 | 0.00 | 0.00 | 79 | 945.0 |
| 20260508154927 | 63 | 45 | 0.0 | 0.0 | 0.00 | 0.00 | 0.00 | 79 | 945.0 |
| 20260508154426 | 63 | 45 | 0.0 | 0.0 | 0.00 | 0.00 | 0.00 | 79 | 945.0 |
| 20260508153930 | 63 | 45 | 0.0 | 0.0 | 0.00 | 0.00 | 0.00 | 79 | 945.0 |
| 20260508152928 | 63 | 45 | 0.0 | 0.0 | 0.00 | 0.00 | 0.00 | 79 | 945.0 |
| 20260508152427 | 63 | 45 | 0.0 | 0.0 | 0.00 | 0.00 | 0.00 | 78 | 945.0 |
| 20260508151926 | 63 | 45 | 0.0 | 0.0 | 0.00 | 0.00 | 0.00 | 77 | 945.0 |
| 20260508150934 | 63 | 45 | 0.0 | 0.0 | 0.00 | 0.00 | 0.00 | 76 | 945.0 |
| 20260508150426 | 63 | 45 | 0.0 | 3.5 | 0.00 | 0.00 | 0.00 | 75 | 945.0 |
| 20260508145427 | 64 | 45 | 3.5 | 3.5 | 0.00 | 0.00 | 0.00 | 72 | 945.0 |
| 20260508144940 | 65 | 45 | 3.5 | 3.5 | 0.00 | 0.00 | 0.00 | 71 | 946.0 |
| 20260508143428 | 66 | 45 | 0.0 | 2.6 | 0.00 | 0.00 | 0.00 | 70 | 945.0 |
| 20260508142943 | 66 | 45 | 0.0 | 2.6 | 0.00 | 0.00 | 0.00 | 69 | 945.0 |
| 20260508142428 | 67 | 45 | 0.0 | 3.5 | 0.00 | 0.00 | 0.00 | 68 | 945.0 |
| 20260508141429 | 68 | 45 | 3.5 | 3.5 | 0.00 | 0.00 | 0.00 | 67 | 945.0 |
| 20260508140428 | 69 | 45 | 3.5 | 4.3 | 0.00 | 0.00 | 0.00 | 65 | 945.0 |
| 20260508135928 | 68 | 45 | 0.0 | 4.3 | 0.00 | 0.00 | 0.00 | 65 | 945.0 |
| 20260508135428 | 69 | 45 | 2.6 | 3.5 | 0.00 | 0.00 | 0.00 | 66 | 945.0 |
| 20260508133929 | 69 | 45 | 2.6 | 3.5 | 0.00 | 0.00 | 0.00 | 65 | 945.0 |
| 20260508133430 | 70 | 45 | 0.0 | 4.3 | 0.00 | 0.00 | 0.00 | 64 | 945.0 |
| 20260508132929 | 71 | 45 | 2.6 | 6.1 | 0.00 | 0.00 | 0.00 | 63 | 945.0 |
| 20260508132438 | 71 | 45 | 4.3 | 6.1 | 0.00 | 0.00 | 0.00 | 63 | 945.0 |
| 20260508130945 | 73 | 45 | 0.0 | 3.5 | 0.00 | 0.00 | 0.00 | 60 | 945.0 |
| 20260508130445 | 74 | 45 | 0.0 | 3.5 | 0.00 | 0.00 | 0.00 | 59 | 945.0 |
| 20260508125929 | 74 | 45 | 3.5 | 3.5 | 0.00 | 0.00 | 0.00 | 60 | 945.0 |
| 20260508125430 | 74 | 45 | 0.0 | 5.2 | 0.00 | 0.00 | 0.00 | 61 | 945.0 |
| 20260508122932 | 70 | 45 | 0.0 | 1.7 | 0.00 | 0.00 | 0.00 | 68 | 945.0 |
| 20260508122431 | 70 | 45 | 0.0 | 1.7 | 0.00 | 0.00 | 0.00 | 68 | 945.0 |
| 20260508121431 | 69 | 45 | 0.9 | 3.5 | 0.00 | 0.00 | 0.00 | 70 | 945.0 |
| 20260508120930 | 68 | 45 | 0.0 | 5.2 | 0.00 | 0.00 | 0.00 | 69 | 945.0 |
| 20260508120441 | 67 | 45 | 2.6 | 5.2 | 0.00 | 0.00 | 0.00 | 69 | 945.0 |
| 20260508114448 | 70 | 45 | 5.2 | 7.0 | 0.00 | 0.00 | 0.00 | 61 | 945.0 |
| 20260508113930 | 72 | 45 | 1.7 | 7.0 | 0.00 | 0.00 | 0.00 | 58 | 945.0 |
| 20260508113429 | 74 | 0 | 0.0 | 7.0 | 0.00 | 0.00 | 0.00 | 57 | 945.0 |
| 20260508112429 | 75 | 45 | 4.3 | 6.1 | 0.00 | 0.00 | 0.00 | 57 | 945.0 |
| 20260508111930 | 74 | 45 | 3.5 | 4.3 | 0.00 | 0.00 | 0.00 | 58 | 945.0 |